VTK609 UHMM-UHHH

Flight info

Callsign VTK609
Flight time N/A
Altitude 40000
Route BANOT5D BANOT L160 NA N222 TOMSU TOMSU6D
Aircraft B772/H-SDE2E3FGHIJ5LORVWXY/LB1D1

Departure

Time N/A
Airport Sokol Airport (UHMM)

Arrival

Time 2026-04-12 07:33
Airport Khabarovsk Novy Airport (UHHH)
Time Latitude Longitude Altitude Speed Heading
2026-04-12 07:02 49.91472 137.05270 39033 ft 469 kts 217°
2026-04-12 07:02 49.88758 137.02447 38601 ft 465 kts 217°
2026-04-12 07:02 49.86082 136.99667 38099 ft 461 kts 217°
2026-04-12 07:02 49.83455 136.96941 37646 ft 457 kts 217°
2026-04-12 07:03 49.80824 136.94214 37192 ft 453 kts 218°
2026-04-12 07:03 49.78218 136.91516 36763 ft 448 kts 218°
2026-04-12 07:03 49.75634 136.88844 36343 ft 444 kts 218°
2026-04-12 07:03 49.73072 136.86198 35925 ft 440 kts 218°
2026-04-12 07:04 49.70530 136.83575 35503 ft 436 kts 218°
2026-04-12 07:04 49.68036 136.81006 35078 ft 433 kts 218°
2026-04-12 07:04 49.65530 136.78426 34652 ft 430 kts 218°
2026-04-12 07:04 49.63041 136.75868 34224 ft 427 kts 219°
2026-04-12 07:05 49.60561 136.73322 33783 ft 425 kts 219°
2026-04-12 07:05 49.58132 136.70830 33278 ft 423 kts 219°
2026-04-12 07:05 49.55684 136.68322 32798 ft 420 kts 219°
2026-04-12 07:05 49.53255 136.65837 32370 ft 416 kts 219°
2026-04-12 07:06 49.50848 136.63377 31928 ft 412 kts 219°
2026-04-12 07:06 49.48457 136.60938 31493 ft 409 kts 219°
2026-04-12 07:06 49.46119 136.58551 31091 ft 405 kts 220°
2026-04-12 07:06 49.43896 136.55960 30685 ft 397 kts 226°
2026-04-12 07:07 49.41935 136.53089 30299 ft 390 kts 231°
2026-04-12 07:07 49.40039 136.50103 29890 ft 387 kts 231°
2026-04-12 07:07 49.38155 136.47147 29402 ft 384 kts 231°
2026-04-12 07:07 49.36315 136.44272 28941 ft 380 kts 231°
2026-04-12 07:08 49.34456 136.41378 28505 ft 375 kts 231°
2026-04-12 07:08 49.32631 136.38544 28086 ft 371 kts 231°
2026-04-12 07:08 49.30842 136.35772 27680 ft 367 kts 231°
2026-04-12 07:08 49.29050 136.33001 27248 ft 364 kts 231°
2026-04-12 07:09 49.27288 136.30278 26840 ft 361 kts 231°
2026-04-12 07:09 49.25522 136.27552 26425 ft 358 kts 231°
2026-04-12 07:09 49.23776 136.24862 26018 ft 355 kts 231°
2026-04-12 07:09 49.22033 136.22177 25620 ft 352 kts 231°
2026-04-12 07:10 49.20312 136.19529 25231 ft 350 kts 231°
2026-04-12 07:10 49.18594 136.16890 24844 ft 348 kts 231°
2026-04-12 07:10 49.16902 136.14293 24460 ft 346 kts 231°
2026-04-12 07:10 49.15201 136.11684 24077 ft 345 kts 231°
2026-04-12 07:11 49.13506 136.09088 23680 ft 343 kts 231°
2026-04-12 07:11 49.11842 136.06542 23293 ft 342 kts 231°
2026-04-12 07:11 49.10162 136.03974 22860 ft 340 kts 231°
2026-04-12 07:11 49.08496 136.01430 22465 ft 337 kts 231°
2026-04-12 07:12 49.06842 135.98907 22083 ft 334 kts 231°
2026-04-12 07:12 49.05199 135.96402 21706 ft 331 kts 231°
2026-04-12 07:12 49.03592 135.93953 21332 ft 329 kts 231°
2026-04-12 07:12 49.01981 135.91501 20965 ft 326 kts 231°
2026-04-12 07:13 49.00374 135.89060 20602 ft 324 kts 230°
2026-04-12 07:13 48.98780 135.86642 20228 ft 321 kts 231°
2026-04-12 07:13 48.97463 135.84035 19834 ft 302 kts 250°
2026-04-12 07:13 48.96676 135.81128 19532 ft 297 kts 253°
2026-04-12 07:14 48.95906 135.78179 19166 ft 303 kts 253°
2026-04-12 07:14 48.95103 135.75134 18820 ft 315 kts 252°
2026-04-12 07:14 48.94275 135.72027 18442 ft 318 kts 252°
2026-04-12 07:14 48.93436 135.68913 18046 ft 317 kts 252°
2026-04-12 07:15 48.92606 135.65852 17636 ft 316 kts 252°
2026-04-12 07:15 48.91768 135.62769 17230 ft 314 kts 251°
2026-04-12 07:15 48.90931 135.59702 16842 ft 312 kts 251°
2026-04-12 07:15 48.90111 135.56700 16466 ft 310 kts 251°
2026-04-12 07:16 48.89285 135.53683 16104 ft 308 kts 251°
2026-04-12 07:16 48.88463 135.50685 15729 ft 306 kts 251°
2026-04-12 07:16 48.87643 135.47696 15365 ft 304 kts 251°
2026-04-12 07:16 48.86828 135.44731 15004 ft 303 kts 251°
2026-04-12 07:17 48.86018 135.41790 14644 ft 301 kts 251°
2026-04-12 07:17 48.85210 135.38859 14274 ft 300 kts 250°
2026-04-12 07:17 48.84415 135.35975 13912 ft 299 kts 250°
2026-04-12 07:17 48.83610 135.33061 13551 ft 298 kts 250°
2026-04-12 07:18 48.82806 135.30155 13147 ft 297 kts 250°
2026-04-12 07:18 48.82008 135.27276 12767 ft 295 kts 250°
2026-04-12 07:18 48.81212 135.24404 12400 ft 293 kts 250°
2026-04-12 07:18 48.80433 135.21598 12050 ft 291 kts 250°
2026-04-12 07:19 48.79648 135.18776 11700 ft 289 kts 250°
2026-04-12 07:19 48.78866 135.15964 11341 ft 287 kts 250°
2026-04-12 07:19 48.78090 135.13178 10989 ft 286 kts 250°
2026-04-12 07:19 48.77319 135.10414 10642 ft 284 kts 250°
2026-04-12 07:20 48.76548 135.07652 10296 ft 284 kts 250°
2026-04-12 07:20 48.75779 135.04898 9959 ft 283 kts 250°
2026-04-12 07:20 48.75030 135.02220 9850 ft 275 kts 250°
2026-04-12 07:20 48.74294 134.99595 9506 ft 266 kts 250°
2026-04-12 07:21 48.73573 134.97025 9205 ft 264 kts 250°
2026-04-12 07:21 48.72853 134.94461 8895 ft 263 kts 249°
2026-04-12 07:21 48.72039 134.92025 8578 ft 257 kts 233°
2026-04-12 07:21 48.70612 134.90420 8321 ft 259 kts 204°
2026-04-12 07:22 48.68847 134.89836 8015 ft 260 kts 187°
2026-04-12 07:22 48.67045 134.89570 7692 ft 259 kts 187°
2026-04-12 07:22 48.65288 134.89311 7410 ft 257 kts 187°
2026-04-12 07:22 48.63513 134.89050 7147 ft 255 kts 187°
2026-04-12 07:23 48.61755 134.88790 6872 ft 253 kts 187°
2026-04-12 07:23 48.60009 134.88529 6595 ft 251 kts 187°
2026-04-12 07:23 48.58274 134.88267 6321 ft 249 kts 187°
2026-04-12 07:23 48.56551 134.88006 6044 ft 248 kts 187°
2026-04-12 07:24 48.54855 134.87747 5869 ft 241 kts 187°
2026-04-12 07:24 48.53250 134.87503 5658 ft 227 kts 187°
2026-04-12 07:24 48.51696 134.87265 5457 ft 222 kts 187°
2026-04-12 07:24 48.50170 134.87032 5209 ft 219 kts 188°
2026-04-12 07:25 48.48684 134.86803 4976 ft 216 kts 187°
2026-04-12 07:25 48.47203 134.86576 4738 ft 212 kts 187°
2026-04-12 07:25 48.45744 134.86353 4501 ft 209 kts 187°
2026-04-12 07:25 48.44316 134.86262 4257 ft 201 kts 171°
2026-04-12 07:26 48.43130 134.87298 4078 ft 199 kts 135°
2026-04-12 07:26 48.42211 134.88883 3861 ft 202 kts 133°
2026-04-12 07:26 48.41270 134.90450 3622 ft 199 kts 133°
2026-04-12 07:26 48.40369 134.91948 3500 ft 190 kts 133°
2026-04-12 07:27 48.39489 134.93416 3393 ft 188 kts 132°
2026-04-12 07:27 48.38627 134.94873 3315 ft 181 kts 127°
2026-04-12 07:27 48.38245 134.95999 3270 ft 179 kts 104°
2026-04-12 07:27 48.38183 134.98431 3175 ft 175 kts 95°
2026-04-12 07:28 48.38086 134.99666 3134 ft 176 kts 92°
2026-04-12 07:28 48.38483 135.01355 3037 ft 177 kts 42°
2026-04-12 07:28 48.39529 135.02223 2909 ft 170 kts 27°
2026-04-12 07:28 48.40507 135.03137 2735 ft 160 kts 35°
2026-04-12 07:29 48.41365 135.04098 2565 ft 146 kts 38°
2026-04-12 07:29 48.42125 135.05019 2392 ft 137 kts 40°
2026-04-12 07:29 48.42853 135.05941 2225 ft 137 kts 38°
2026-04-12 07:29 48.43593 135.06850 2066 ft 138 kts 38°
2026-04-12 07:30 48.44321 135.07755 1902 ft 137 kts 38°
2026-04-12 07:30 48.45047 135.08670 1737 ft 134 kts 37°
2026-04-12 07:30 48.45770 135.09563 1560 ft 136 kts 38°
2026-04-12 07:30 48.46492 135.10513 1438 ft 139 kts 40°
2026-04-12 07:31 48.47208 135.11488 1295 ft 138 kts 41°
2026-04-12 07:31 48.47930 135.12459 1115 ft 139 kts 40°
2026-04-12 07:31 48.48643 135.13412 956 ft 138 kts 41°
2026-04-12 07:31 48.49348 135.14392 818 ft 138 kts 43°
2026-04-12 07:32 48.50067 135.15374 645 ft 139 kts 42°
2026-04-12 07:32 48.50795 135.16353 446 ft 141 kts 42°
2026-04-12 07:32 48.51520 135.17344 294 ft 139 kts 43°
2026-04-12 07:32 48.52199 135.18273 248 ft 119 kts 41°
2026-04-12 07:33 48.52677 135.18923 251 ft 67 kts 42°
2026-04-12 07:33 48.52887 135.19209 249 ft 18 kts 42°
2026-04-12 07:33 48.52965 135.19313 250 ft 10 kts 31°
2026-04-12 07:33 48.53005 135.19268 250 ft 8 kts 278°
2026-04-12 07:34 48.52997 135.19185 251 ft 8 kts 256°
2026-04-12 07:34 48.52984 135.19103 252 ft 8 kts 256°
2026-04-12 07:34 48.52971 135.19020 254 ft 8 kts 256°
2026-04-12 07:34 48.52958 135.18939 254 ft 8 kts 256°
2026-04-12 07:35 48.52945 135.18857 255 ft 8 kts 256°
2026-04-12 07:35 48.52929 135.18770 253 ft 10 kts 249°
2026-04-12 07:35 48.52889 135.18679 252 ft 10 kts 225°
2026-04-12 07:35 48.52834 135.18606 251 ft 10 kts 222°
2026-04-12 07:36 48.52780 135.18532 251 ft 10 kts 222°
2026-04-12 07:36 48.52726 135.18458 249 ft 10 kts 222°
2026-04-12 07:36 48.52661 135.18369 248 ft 18 kts 222°
2026-04-12 07:36 48.52562 135.18235 245 ft 19 kts 222°
2026-04-12 07:37 48.52463 135.18099 246 ft 19 kts 222°
2026-04-12 07:37 48.52367 135.17968 247 ft 16 kts 222°
2026-04-12 07:37 48.52299 135.17877 250 ft 10 kts 222°
2026-04-12 07:37 48.52292 135.17782 251 ft 10 kts 304°
2026-04-12 07:38 48.52340 135.17700 251 ft 11 kts 312°
2026-04-12 07:38 48.52392 135.17613 250 ft 11 kts 312°
2026-04-12 07:38 48.52445 135.17525 250 ft 11 kts 312°
2026-04-12 07:38 48.52492 135.17446 250 ft 9 kts 312°
2026-04-12 07:39 48.52532 135.17382 250 ft 9 kts 311°
2026-04-12 07:39 48.52569 135.17320 249 ft 6 kts 311°
2026-04-12 07:39 48.52585 135.17293 249 ft 1 kts 312°
2026-04-12 07:39 48.52585 135.17292 249 ft 0 kts 312°